Location: *
(43.0833°N, 13.0500°E)
Time: 08:21:26
(UTC+00:00)

Cosmos 2360 - Pass Details

Date: 15 November 2019
Orbit: 845 x 857 km, 70.8° (Epoch: 13 December)

Event Time Altitude Azimuth Distance (km) Brightness Sun altitude
Rises 17:24:06 0° 189° (S) 3,395 7.6 -18.2°
Reaches altitude 10° 17:26:35 10° 185° (S) 2,465 6.8 -18.7°
Maximum altitude 17:32:05 54° 109° (ESE) 1,027 4.3 -19.7°
Enters shadow 17:34:31 32° 49° (NE) 1,437 5.0 -20.1°
